Time,TemperatureF,DewpointF,PressureIn,WindDirection,WindDirectionDegrees,WindSpeedMPH,WindSpeedGustMPH,Humidity,HourlyPrecipIn,Conditions,Clouds,dailyrainin,SoftwareType,DateUTC
2013-07-05 02:13:00,65.0,63.0,30.10,SE,144,4.0,12.0,93,0.00,,,2.25,,2013-07-05 06:13:00,
2013-07-05 02:23:00,65.0,63.0,30.09,SE,125,4.0,13.0,93,0.00,,,2.25,,2013-07-05 06:23:00,
2013-07-05 02:34:00,66.0,64.0,30.09,SE,138,4.0,10.0,92,0.00,,,2.25,,2013-07-05 06:34:00,
2013-07-05 02:44:00,66.0,64.0,30.09,SE,138,4.0,10.0,92,0.00,,,2.25,,2013-07-05 06:44:00,
2013-07-05 02:53:00,66.0,64.0,30.08,South,175,1.0,9.0,92,0.00,,,2.25,,2013-07-05 06:53:00,
2013-07-05 03:02:00,66.0,64.0,30.08,SSW,204,0.0,12.0,92,0.01,,,2.25,,2013-07-05 07:02:00,
2013-07-05 03:12:00,66.0,64.0,30.08,SSW,204,0.0,12.0,92,0.01,,,2.25,,2013-07-05 07:12:00,
2013-07-05 03:23:00,66.0,64.0,30.08,SSW,200,0.0,3.0,92,0.01,,,2.23,,2013-07-05 07:23:00,
2013-07-05 03:34:00,66.0,64.0,30.09,SSW,198,1.0,3.0,92,0.01,,,2.22,,2013-07-05 07:34:00,
2013-07-05 03:43:00,66.0,64.0,30.09,SSW,198,1.0,3.0,92,0.01,,,2.22,,2013-07-05 07:43:00,
2013-07-05 03:53:00,66.0,64.0,30.09,South,179,2.0,6.0,92,0.02,,,2.23,,2013-07-05 07:53:00,
2013-07-05 04:03:00,66.0,64.0,30.09,SE,126,5.0,12.0,92,0.01,,,2.22,,2013-07-05 08:03:00,
2013-07-05 04:12:00,66.0,64.0,30.09,SE,126,5.0,12.0,92,0.01,,,2.22,,2013-07-05 08:12:00,
2013-07-05 04:23:00,66.0,64.0,30.09,SSE,159,3.0,12.0,92,0.01,,,2.21,,2013-07-05 08:23:00,
2013-07-05 04:33:00,66.0,64.0,30.09,SSW,197,2.0,9.0,92,0.02,,,2.21,,2013-07-05 08:33:00,
2013-07-05 04:44:00,66.0,64.0,30.09,SSW,197,2.0,9.0,92,0.02,,,2.21,,2013-07-05 08:44:00,
2013-07-05 04:57:00,66.0,64.0,30.10,SSE,152,2.0,15.0,92,0.01,,,2.21,,2013-07-05 08:57:00,
2013-07-05 05:08:00,66.0,64.0,30.10,ESE,113,0.0,12.0,92,0.01,,,2.20,,2013-07-05 09:08:00,
2013-07-05 05:16:00,66.0,64.0,30.10,ESE,113,0.0,12.0,92,0.01,,,2.20,,2013-07-05 09:16:00,
2013-07-05 05:28:00,65.0,63.0,30.10,ESE,115,1.0,3.0,92,0.02,,,2.19,,2013-07-05 09:28:00,
2013-07-05 05:37:00,65.0,63.0,30.10,ESE,115,0.0,2.0,92,0.01,,,2.17,,2013-07-05 09:37:00,
2013-07-05 05:48:00,65.0,63.0,30.10,ESE,115,0.0,2.0,92,0.01,,,2.17,,2013-07-05 09:48:00,
2013-07-05 06:08:00,65.0,63.0,30.10,ESE,115,0.0,0.0,93,0.01,,,2.17,,2013-07-05 10:08:00,
2013-07-05 06:19:00,65.0,63.0,30.10,ESE,115,0.0,0.0,93,0.01,,,2.17,,2013-07-05 10:19:00,
2013-07-05 06:27:00,65.0,63.0,30.10,SSW,194,1.0,5.0,93,0.00,,,2.16,,2013-07-05 10:27:00,
2013-07-05 06:37:00,65.0,63.0,30.10,South,169,1.0,5.0,94,0.01,,,2.14,,2013-07-05 10:37:00,
2013-07-05 06:58:00,65.0,63.0,30.10,SSE,150,0.0,10.0,94,0.01,,,2.12,,2013-07-05 10:58:00,
2013-07-05 07:10:00,66.0,64.0,30.11,SE,126,3.0,12.0,94,0.01,,,2.12,,2013-07-05 11:10:00,
2013-07-05 07:18:00,66.0,64.0,30.11,SE,126,3.0,12.0,94,0.01,,,2.12,,2013-07-05 11:18:00,
2013-07-05 07:25:00,66.0,64.0,30.11,SE,141,5.0,12.0,93,0.01,,,2.12,,2013-07-05 11:25:00,
2013-07-05 07:37:00,66.0,64.0,30.11,SSE,154,1.0,9.0,93,0.00,,,2.12,,2013-07-05 11:37:00,
2013-07-05 07:48:00,66.0,64.0,30.11,SSE,154,1.0,9.0,93,0.00,,,2.12,,2013-07-05 11:48:00,
2013-07-05 08:00:00,66.0,64.0,30.11,SSE,154,2.0,13.0,92,0.00,,,2.12,,2013-07-05 12:00:00,
2013-07-05 08:10:00,66.0,64.0,30.12,SE,139,3.0,12.0,92,0.00,,,2.12,,2013-07-05 12:10:00,
2013-07-05 09:07:00,67.0,64.0,30.13,SSE,150,3.0,12.0,91,0.00,,,2.12,,2013-07-05 13:07:00,
2013-07-05 09:39:00,68.0,65.0,30.14,SSW,200,1.0,8.0,90,0.00,,,2.12,,2013-07-05 13:39:00,
2013-07-05 09:49:00,68.0,65.0,30.14,SSW,200,1.0,8.0,90,0.00,,,2.12,,2013-07-05 13:49:00,
2013-07-05 09:58:00,68.0,65.0,30.15,SSE,164,1.0,5.0,90,0.00,,,2.12,,2013-07-05 13:58:00,
2013-07-05 10:07:00,68.0,65.0,30.15,South,171,1.0,5.0,90,0.00,,,2.12,,2013-07-05 14:07:00,
2013-07-05 10:16:00,68.0,65.0,30.15,South,171,1.0,5.0,90,0.00,,,2.12,,2013-07-05 14:16:00,
2013-07-05 10:28:00,69.0,66.0,30.14,SSW,202,1.0,5.0,90,0.00,,,2.12,,2013-07-05 14:28:00,
2013-07-05 10:58:00,71.0,66.0,30.14,South,185,4.0,10.0,84,0.00,,,2.12,,2013-07-05 14:58:00,
2013-07-05 11:07:00,72.0,66.0,30.14,SSW,194,3.0,13.0,81,0.00,,,2.12,,2013-07-05 15:07:00,
2013-07-05 11:25:00,73.0,66.0,30.13,South,183,2.0,12.0,78,0.00,,,2.10,,2013-07-05 15:25:00,
2013-07-05 12:11:00,73.0,66.0,30.14,SSE,168,4.0,12.0,78,0.00,,,2.07,,2013-07-05 16:11:00,
2013-07-05 14:22:00,77.0,68.0,30.12,South,179,7.0,14.0,74,0.00,,,2.04,,2013-07-05 18:22:00,
2013-07-05 14:53:00,77.0,69.0,30.11,SE,143,1.0,15.0,76,0.00,,,2.04,,2013-07-05 18:53:00,
2013-07-05 15:12:00,78.0,68.0,30.10,WSW,244,3.0,12.0,72,0.00,,,2.04,,2013-07-05 19:12:00,
2013-07-05 15:43:00,78.0,66.0,30.09,SSW,205,2.0,16.0,66,0.00,,,2.04,,2013-07-05 19:43:00,
2013-07-05 15:53:00,77.0,66.0,30.09,SSW,193,5.0,12.0,70,0.00,,,2.04,,2013-07-05 19:53:00,
2013-07-05 16:02:00,78.0,66.0,30.08,South,191,5.0,12.0,66,0.00,,,2.04,,2013-07-05 20:02:00,
2013-07-05 16:11:00,78.0,66.0,30.08,South,191,5.0,12.0,66,0.00,,,2.04,,2013-07-05 20:11:00,
2013-07-05 16:43:00,78.0,66.0,30.08,SE,142,3.0,16.0,67,0.00,,,1.64,,2013-07-05 20:43:00,
2013-07-05 16:53:00,78.0,65.0,30.08,SSE,158,5.0,12.0,65,0.00,,,1.33,,2013-07-05 20:53:00,
2013-07-05 17:01:00,78.0,66.0,30.08,SE,137,2.0,13.0,67,0.00,,,1.32,,2013-07-05 21:01:00,
2013-07-05 17:12:00,78.0,66.0,30.08,SE,137,2.0,13.0,67,0.00,,,1.32,,2013-07-05 21:12:00,
2013-07-05 17:22:00,78.0,66.0,30.08,ESE,123,4.0,13.0,66,0.00,,,1.15,,2013-07-05 21:22:00,
2013-07-05 20:33:00,67.0,64.0,30.13,SE,128,2.0,12.0,89,0.00,,,1.22,,2013-07-06 00:33:00,
2013-07-05 20:42:00,67.0,64.0,30.13,SE,128,2.0,12.0,89,0.00,,,1.22,,2013-07-06 00:42:00,
2013-07-05 20:53:00,66.0,62.0,30.13,SE,136,2.0,13.0,88,0.00,,,1.22,,2013-07-06 00:53:00,
2013-07-05 21:02:00,67.0,64.0,30.12,ESE,119,0.0,9.0,89,0.00,,,1.18,,2013-07-06 01:02:00,
2013-07-05 21:12:00,67.0,64.0,30.12,ESE,119,0.0,9.0,89,0.00,,,1.18,,2013-07-06 01:12:00,
2013-07-05 21:22:00,67.0,64.0,30.11,SE,124,2.0,6.0,89,0.00,,,1.13,,2013-07-06 01:22:00,
2013-07-05 21:33:00,67.0,64.0,30.11,SE,124,2.0,6.0,89,0.00,,,1.13,,2013-07-06 01:33:00,
2013-07-05 21:43:00,66.0,63.0,30.11,South,175,0.0,9.0,89,0.00,,,0.66,,2013-07-06 01:43:00,
2013-07-05 21:53:00,67.0,64.0,30.11,South,178,2.0,10.0,89,0.00,,,0.39,,2013-07-06 01:53:00,
2013-07-05 22:02:00,67.0,64.0,30.12,South,177,1.0,10.0,89,0.00,,,0.35,,2013-07-06 02:02:00,
2013-07-05 22:12:00,67.0,64.0,30.12,South,177,1.0,10.0,89,0.00,,,0.35,,2013-07-06 02:12:00,
2013-07-05 22:43:00,67.0,63.0,30.12,East,84,2.0,12.0,88,0.00,,,0.31,,2013-07-06 02:43:00,
2013-07-05 22:53:00,67.0,63.0,30.12,SSE,149,3.0,10.0,88,0.00,,,0.31,,2013-07-06 02:53:00,
2013-07-05 23:02:00,67.0,63.0,30.12,SSE,149,3.0,10.0,88,0.00,,,0.31,,2013-07-06 03:02:00,
2013-07-05 23:12:00,67.0,63.0,30.12,SE,144,6.0,14.0,88,0.00,,,0.30,,2013-07-06 03:12:00,
2013-07-05 23:22:00,68.0,64.0,30.12,SE,131,3.0,12.0,88,0.00,,,0.29,,2013-07-06 03:22:00,
2013-07-05 23:34:00,68.0,64.0,30.13,SE,145,3.0,12.0,86,0.00,,,0.27,,2013-07-06 03:34:00,
2013-07-05 23:43:00,68.0,64.0,30.13,SE,145,3.0,12.0,86,0.00,,,0.27,,2013-07-06 03:43:00,
2013-07-05 23:53:00,68.0,64.0,30.12,SSE,155,2.0,10.0,86,0.00,,,0.27,,2013-07-06 03:53:00,